H1 CPF 2 NER 2023 1 10 9 010 01 glonass134 H2 1407501 9134 40315 2023 1 10 0 0 0 2023 1 13 23 45 0 900 1 1 0 0 0 1 H9 10 0 59954 0.00000 0 -17001070.076 16952876.485 8736721.190 10 0 59954 900.00000 0 -16250593.581 15950860.291 11584586.975 10 0 59954 1800.00000 0 -15409800.022 14604085.613 14208470.915 10 0 59954 2700.00000 0 -14535822.799 12924669.938 16557597.529 10 0 59954 3600.00000 0 -13683870.201 10937112.368 18586462.445 10 0 59954 4500.00000 0 -12904821.480 8677526.637 20255706.036 10 0 59954 5400.00000 0 -12243019.131 6192398.242 21532873.124 10 0 59954 6300.00000 0 -11734349.314 3536914.865 22393044.579 10 0 59954 7200.00000 0 -11404690.706 772936.785 22819328.665 10 0 59954 8100.00000 0 -11268797.164 -2033311.158 22803202.297 10 0 59954 9000.00000 0 -11329661.977 -4813732.830 22344694.751 10 0 59954 9900.00000 0 -11578391.790 -7500937.799 21452408.972 10 0 59954 10800.00000 0 -11994597.284 -10030796.686 20143378.398 10 0 59954 11700.00000 0 -12547286.184 -12344869.625 18442760.129 10 0 59954 12600.00000 0 -13196222.985 -14392606.961 16383368.380 10 0 59954 13500.00000 0 -13893699.803 -16133230.205 14005055.343 10 0 59954 14400.00000 0 -14586644.901 -17537213.898 11353949.757 10 0 59954 15300.00000 0 -15218980.409 -18587305.280 8481566.831 10 0 59954 16200.00000 0 -15734129.374 -19279037.869 5443806.149 10 0 59954 17100.00000 0 -16077565.139 -19620716.457 2299857.020 10 0 59954 18000.00000 0 -16199293.452 -19632873.510 -888966.639 10 0 59954 18900.00000 0 -16056160.036 -19347219.884 -4060437.978 10 0 59954 19800.00000 0 -15613883.432 -18805134.742 -7152650.084 10 0 59954 20700.00000 0 -14848724.582 -18055759.667 -10105243.877 10 0 59954 21600.00000 0 -13748720.233 -17153779.282 -12860604.984 10 0 59954 22500.00000 0 -12314426.187 -16156984.289 -15365004.275 10 0 59954 23400.00000 0 -10559137.793 -15123722.153 -17569658.012 10 0 59954 24300.00000 0 -8508577.723 -14110345.200 -19431685.824 10 0 59954 25200.00000 0 -6200064.104 -13168765.575 -20914947.166 10 0 59954 26100.00000 0 -3681194.383 -12344221.330 -21990739.922 10 0 59954 27000.00000 0 -1008100.817 -11673348.203 -22638348.122 10 0 59954 27900.00000 0 1756648.685 -11182637.960 -22845429.178 10 0 59954 28800.00000 0 4546415.920 -10887347.132 -22608234.469 10 0 59954 29700.00000 0 7293024.946 -10790900.424 -21931660.695 10 0 59954 30600.00000 0 9929356.453 -10884811.808 -20829132.661 10 0 59954 31500.00000 0 12391896.478 -11149124.432 -19322321.442 10 0 59954 32400.00000 0 14623134.664 -11553348.632 -17440704.881 10 0 59954 33300.00000 0 16573714.026 -12057856.673 -15220980.135 10 0 59954 34200.00000 0 18204244.851 -12615674.017 -12706340.615 10 0 59954 35100.00000 0 19486709.742 -13174590.714 -9945631.887 10 0 59954 36000.00000 0 20405403.859 -13679503.578 -6992403.124 10 0 59954 36900.00000 0 20957373.684 -14074890.595 -3903872.469 10 0 59954 37800.00000 0 21152338.380 -14307313.861 -739825.948 10 0 59954 38700.00000 0 21012098.999 -14327846.463 2438529.399 10 0 59954 39600.00000 0 20569461.702 -14094322.101 5569736.741 10 0 59954 40500.00000 0 19866720.980 -13573313.687 8593263.442 10 0 59954 41400.00000 0 18953766.668 -12741758.405 11450656.320 10 0 59954 42300.00000 0 17885893.794 -11588161.260 14086656.985 10 0 59954 43200.00000 0 16721406.255 -10113326.386 16450257.074 10 0 59954 44100.00000 0 15519113.631 -8330584.554 18495674.197 10 0 59954 45000.00000 0 14335824.721 -6265505.964 20183230.769 10 0 59954 45900.00000 0 13223941.541 -3955108.151 21480119.637 10 0 59954 46800.00000 0 12229253.448 -1446589.518 22361042.247 10 0 59954 47700.00000 0 11389023.097 1204361.627 22808707.064 10 0 59954 48600.00000 0 10730444.126 3935615.140 22814178.330 10 0 59954 49500.00000 0 10269535.482 6680922.000 22377067.563 10 0 59954 50400.00000 0 10010519.557 9372418.047 21505562.813 10 0 59954 51300.00000 0 9945711.479 11943206.486 20216293.467 10 0 59954 52200.00000 0 10055925.739 14329913.144 18534031.277 10 0 59954 53100.00000 0 10311384.749 16475108.650 16491231.408 10 0 59954 54000.00000 0 10673092.585 18329496.572 14127420.464 10 0 59954 54900.00000 0 11094617.217 19853775.478 11488441.653 10 0 59954 55800.00000 0 11524206.642 21020095.875 8625570.563 10 0 59954 56700.00000 0 11907149.457 21813049.685 5594518.057 10 0 59954 57600.00000 0 12188279.257 22230149.441 2454339.625 10 0 59954 58500.00000 0 12314515.350 22281775.986 -733726.838 10 0 59954 59400.00000 0 12237330.132 21990596.386 -3907470.989 10 0 59954 60300.00000 0 11915036.123 21390476.649 -7004942.435 10 0 59954 61200.00000 0 11314793.247 20524935.861 -9965679.407 10 0 59954 62100.00000 0 10414248.848 19445208.336 -12731907.695 10 0 59954 63000.00000 0 9202738.926 18207997.419 -15249684.427 10 0 59954 63900.00000 0 7681998.185 16873017.789 -17469962.622 10 0 59954 64800.00000 0 5866347.881 15500432.076 -19349554.568 10 0 59954 65700.00000 0 3782353.056 14148291.631 -20851974.591 10 0 59954 66600.00000 0 1467963.707 12870090.640 -21948144.690 10 0 59954 67500.00000 0 -1028823.616 11712537.168 -22616949.841 10 0 59954 68400.00000 0 -3651727.076 10713634.763 -22845633.217 10 0 59954 69300.00000 0 -6338289.248 9901154.406 -22630024.981 10 0 59954 70200.00000 0 -9022246.662 9291559.386 -21974601.898 10 0 59954 71100.00000 0 -11636060.267 8889426.121 -20892378.280 10 0 59954 72000.00000 0 -14113501.535 8687382.825 -19404632.070 10 0 59954 72900.00000 0 -16392187.401 8666565.998 -17540472.868 10 0 59954 73800.00000 0 -18415959.812 8797573.095 -15336261.473 10 0 59954 74700.00000 0 -20137012.521 9041869.258 -12834893.177 10 0 59954 75600.00000 0 -21517678.704 9353587.234 -10084959.251 10 0 59954 76500.00000 0 -22531807.226 9681643.678 -7139803.112 10 0 59954 77400.00000 0 -23165672.474 9972082.213 -4056489.441 10 0 59954 78300.00000 0 -23418382.052 10170544.606 -894705.854 10 0 59954 79200.00000 0 -23301767.260 10224766.399 2284382.265 10 0 59954 80100.00000 0 -22839762.426 10086992.620 5419302.357 10 0 59954 81000.00000 0 -22067300.075 9716212.719 8449449.102 10 0 59954 81900.00000 0 -21028768.573 9080121.359 11316241.140 10 0 59954 82800.00000 0 -19776096.639 8156723.136 13964238.907 10 0 59954 83700.00000 0 -18366544.212 6935513.815 16342203.278 10 0 59954 84600.00000 0 -16860291.005 5418187.943 18404075.840 10 0 59954 85500.00000 0 -15317922.278 3618842.074 20109862.859 10 0 59955 0.00000 0 -13797915.638 1563663.418 21426406.682 10 0 59955 900.00000 0 -12354231.751 -709886.620 22328030.841 10 0 59955 1800.00000 0 -11034110.616 -3154359.922 22797044.826 10 0 59955 2700.00000 0 -9876162.076 -5714033.270 22824100.825 10 0 59955 3600.00000 0 -8908832.205 -8326973.215 22408392.866 10 0 59955 4500.00000 0 -8149309.233 -10927372.107 21557694.024 10 0 59955 5400.00000 0 -7602915.671 -13448060.323 20288229.212 10 0 59955 6300.00000 0 -7263013.225 -15823091.905 18624384.074 10 0 59955 7200.00000 0 -7111425.859 -17990296.830 16598253.642 10 0 59955 8100.00000 0 -7119364.479 -19893693.753 14249037.549 10 0 59955 9000.00000 0 -7248815.437 -21485662.008 11622291.801 10 0 59955 9900.00000 0 -7454334.986 -22728780.863 8769050.458 10 0 59955 10800.00000 0 -7685173.993 -23597257.633 5744833.550 10 0 59955 11700.00000 0 -7887642.500 -24077883.081 2608560.469 10 0 59955 12600.00000 0 -8007612.767 -24170472.543 -578609.348 10 0 59955 13500.00000 0 -7993052.901 -23887773.169 -3754484.632 10 0 59955 14400.00000 0 -7796481.343 -23254840.665 -6857074.196 10 0 59955 15300.00000 0 -7377235.609 -22307912.008 -9825816.382 10 0 59955 16200.00000 0 -6703456.601 -21092822.492 -12602779.992 10 0 59955 17100.00000 0 -5753702.049 -19663035.282 -15133811.275 10 0 59955 18000.00000 0 -4518118.959 -18077368.362 -17369602.774 10 0 59955 18900.00000 0 -2999124.134 -16397516.648 -19266662.024 10 0 59955 19800.00000 0 -1211563.234 -14685475.398 -20788160.513 10 0 59955 20700.00000 0 817658.485 -13000974.880 -21904646.244 10 0 59955 21600.00000 0 3050458.012 -11399034.970 -22594606.581 10 0 59955 22500.00000 0 5438931.484 -9927742.546 -22844871.401 10 0 59955 23400.00000 0 7927128.578 -8626344.351 -22650850.103 10 0 59955 24300.00000 0 10453169.588 -7523733.903 -22016599.496 10 0 59955 25200.00000 0 12951616.415 -6637393.806 -20954722.947 10 0 59955 26100.00000 0 15355998.460 -5972835.345 -19486104.409 10 0 59955 27000.00000 0 17601388.538 -5523556.018 -17639483.988 10 0 59955 27900.00000 0 19626922.407 -5271513.950 -15450884.497 10 0 59955 28800.00000 0 21378158.174 -5188096.708 -12962901.091 10 0 59955 29700.00000 0 22809179.006 -5235541.518 -10223868.339 10 0 59955 30600.00000 0 23884353.469 -5368745.484 -7286921.128 10 0 59955 31500.00000 0 24579682.097 -5537388.539 -4208967.606 10 0 59955 32400.00000 0 24883676.082 -5688279.219 -1049593.683 10 0 59955 33300.00000 0 24797733.238 -5767824.511 2130080.328 10 0 59955 34200.00000 0 24335996.982 -5724520.168 5268569.542 10 0 59955 35100.00000 0 23524705.330 -5511357.299 8305199.229 10 0 59955 36000.00000 0 22401057.561 -5088044.650 11181262.903 10 0 59955 36900.00000 0 21011645.898 -4422953.684 13841142.545 10 0 59955 37800.00000 0 19410517.152 -3494704.974 16233370.629 10 0 59955 38700.00000 0 17656944.218 -2293329.046 18311614.694 10 0 59955 39600.00000 0 15812999.144 -820952.210 20035566.429 10 0 59955 40500.00000 0 13941027.481 908022.823 21371719.059 10 0 59955 41400.00000 0 12101127.702 2867251.204 22294018.532 10 0 59955 42300.00000 0 10348739.465 5019283.678 22784376.046 10 0 59955 43200.00000 0 8732440.206 7316875.814 22833031.763 10 0 59955 44100.00000 0 7292041.293 9704717.280 22438761.862 10 0 59955 45000.00000 0 6057063.086 12121512.061 21608923.700 10 0 59955 45900.00000 0 5045652.904 14502325.620 20359336.595 10 0 59955 46800.00000 0 4263991.820 16781103.351 18713998.615 10 0 59955 47700.00000 0 3706216.210 18893256.597 16704642.869 10 0 59955 48600.00000 0 3354858.385 20778208.939 14370139.941 10 0 59955 49500.00000 0 3181788.793 22381796.135 11755756.322 10 0 59955 50400.00000 0 3149620.819 23658418.300 8912282.015 10 0 59955 51300.00000 0 3213519.134 24572852.712 5895043.517 10 0 59955 52200.00000 0 3323334.775 25101649.405 2762821.273 10 0 59955 53100.00000 0 3425975.614 25234049.108 -423306.642 10 0 59955 54000.00000 0 3467910.123 24972383.386 -3601170.961 10 0 59955 54900.00000 0 3397696.157 24331939.093 -6708742.548 10 0 59955 55800.00000 0 3168425.065 23340292.383 -9685362.556 10 0 59955 56700.00000 0 2739974.898 22036140.635 -12472945.280 10 0 59955 57600.00000 0 2080974.781 20467682.401 -15017128.295 10 0 59955 58500.00000 0 1170395.144 18690615.040 -17268345.580 10 0 59955 59400.00000 0 -1305.064 16765836.092 -19182801.519 10 0 59955 60300.00000 0 -1431523.720 14756946.805 -20723326.056 10 0 59955 61200.00000 0 -3105381.449 12727664.312 -21860094.201 10 0 59955 62100.00000 0 -4996113.738 10739252.207 -22571196.381 10 0 59955 63000.00000 0 -7065972.325 8848077.657 -22843049.531 10 0 59955 63900.00000 0 -9267597.300 7103397.170 -22670642.256 10 0 59955 64800.00000 0 -11545801.765 5545462.588 -22057610.976 10 0 59955 65700.00000 0 -13839693.781 4204024.722 -21016147.240 10 0 59955 66600.00000 0 -16085046.568 3097294.854 -19566739.700 10 0 59955 67500.00000 0 -18216818.070 2231404.712 -17737757.250 10 0 59955 68400.00000 0 -20171715.244 1600384.470 -15564882.649 10 0 59955 69300.00000 0 -21890696.953 1186656.771 -13090408.579 10 0 59955 70200.00000 0 -23321312.393 962023.321 -10362410.412 10 0 59955 71100.00000 0 -24419779.084 889100.342 -7433811.919 10 0 59955 72000.00000 0 -25152715.418 923140.934 -4361362.104 10 0 59955 72900.00000 0 -25498457.277 1014166.583 -1204542.574 10 0 59955 73800.00000 0 -25447905.374 1109317.666 1975573.985 10 0 59955 74700.00000 0 -25004869.329 1155324.049 5117492.872 10 0 59955 75600.00000 0 -24185895.133 1100992.222 8160472.400 10 0 59955 76500.00000 0 -23019583.707 899604.877 11045683.332 10 0 59955 77400.00000 0 -21545429.036 511132.683 13717331.461 10 0 59955 78300.00000 0 -19812223.831 -95834.290 16123722.976 10 0 59955 79200.00000 0 -17876098.195 -942516.550 18218253.240 10 0 59955 80100.00000 0 -15798271.703 -2038802.810 19960300.965 10 0 59955 81000.00000 0 -13642610.896 -3382584.200 21316011.401 10 0 59955 81900.00000 0 -11473092.133 -4959594.609 22258954.010 10 0 59955 82800.00000 0 -9351273.826 -6743766.040 22770642.030 10 0 59955 83700.00000 0 -7333881.832 -8698086.846 22840903.667 10 0 59955 84600.00000 0 -5470607.454 -10775930.054 22468096.951 10 0 59955 85500.00000 0 -3802209.262 -12922799.289 21659162.888 10 0 59956 0.00000 0 -2358997.850 -15078422.149 20429514.393 10 0 59956 900.00000 0 -1159766.386 -17179107.209 18802760.528 10 0 59956 1800.00000 0 -211214.299 -19160265.024 16810271.119 10 0 59956 2700.00000 0 492113.453 -20958992.633 14490586.026 10 0 59956 3600.00000 0 967366.108 -22516610.634 11888680.350 10 0 59956 4500.00000 0 1242425.226 -23781047.017 9055097.991 10 0 59956 5400.00000 0 1354481.292 -24708966.245 6044969.732 10 0 59956 6300.00000 0 1348209.062 -25267552.346 2916934.805 10 0 59956 7200.00000 0 1273619.574 -25435869.045 -268012.432 10 0 59956 8100.00000 0 1183681.189 -25205737.761 -3447727.096 10 0 59956 9000.00000 0 1131812.421 -24582094.926 -6560144.545 10 0 59956 9900.00000 0 1169355.185 -23582812.514 -9544511.186 10 0 59956 10800.00000 0 1343138.180 -22237989.007 -12342589.263 10 0 59956 11700.00000 0 1693236.183 -20588740.954 -14899810.088 10 0 59956 12600.00000 0 2251022.431 -18685546.986 -17166351.393 10 0 59956 13500.00000 0 3037598.365 -16586215.308 -19098116.551 10 0 59956 14400.00000 0 4062668.339 -14353561.677 -20657595.846 10 0 59956 15300.00000 0 5323907.470 -12052896.907 -21814592.846 10 0 59956 16200.00000 0 6806849.329 -9749430.481 -22546802.206 10 0 59956 17100.00000 0 8485297.843 -7505699.662 -22840228.665 10 0 59956 18000.00000 0 10322245.344 -5379131.765 -22689440.372 10 0 59956 18900.00000 0 12271257.400 -3419840.691 -22097653.297 10 0 59956 19800.00000 0 14278265.591 -1668748.264 -21076646.740 10 0 59956 20700.00000 0 16283692.508 -156106.718 -19646513.275 10 0 59956 21600.00000 0 18224819.785 1099518.698 -17835249.470 10 0 59956 22500.00000 0 20038300.306 2091767.525 -15678196.579 10 0 59956 23400.00000 0 21662710.022 2826483.746 -13217343.020 10 0 59956 24300.00000 0 23041033.732 3321200.343 -10500502.811 10 0 59956 25200.00000 0 24122982.185 3604133.058 -7580386.126 10 0 59956 26100.00000 0 24867045.120 3712727.731 -4513580.035 10 0 59956 27000.00000 0 25242196.014 3691823.830 -1359458.837 10 0 59956 27900.00000 0 25229178.795 3591512.359 1820955.550 10 0 59956 28800.00000 0 24821324.003 3464778.543 4966161.783 10 0 59956 29700.00000 0 24024861.273 3365028.380 8015354.310 10 0 59956 30600.00000 0 22858715.582 3343602.617 10909584.070 10 0 59956 31500.00000 0 21353795.773 3447382.066 13592883.358 10 0 59956 32400.00000 0 19551804.527 3716584.315 16013334.461 10 0 59956 33300.00000 0 17503618.318 4182844.005 18124062.655 10 0 59956 34200.00000 0 15267303.452 4867657.273 19884135.423 10 0 59956 35100.00000 0 12905848.964 5781256.115 21259351.460 10 0 59956 36000.00000 0 10484708.742 6921961.023 22222904.811 10 0 59956 36900.00000 0 8069253.206 8276040.712 22755911.460 10 0 59956 37800.00000 0 5722234.704 9818087.120 22847787.975 10 0 59956 38700.00000 0 3501370.540 11511892.742 22496474.143 10 0 59956 39600.00000 0 1457143.253 13311796.451 21708494.082 10 0 59956 40500.00000 0 -369090.826 15164444.467 20498853.079 10 0 59956 41400.00000 0 -1946605.930 17010895.423 18890770.231 10 0 59956 42300.00000 0 -3256360.819 18788983.458 16915250.101 10 0 59956 43200.00000 0 -4291557.630 20435841.776 14610499.691 10 0 59956 44100.00000 0 -5057681.330 21890481.411 12021200.293 10 0 59956 45000.00000 0 -5572017.317 23096316.635 9197647.072 10 0 59956 45900.00000 0 -5862667.000 24003529.851 6194772.298 10 0 59956 46800.00000 0 -5967102.828 24571174.794 3071071.082 10 0 59956 47700.00000 0 -5930324.278 24768927.420 -112548.898 10 0 59956 48600.00000 0 -5802693.986 24578408.540 -3293970.115 10 0 59956 49500.00000 0 -5637547.323 23994020.477 -6411095.308 10 0 59956 50400.00000 0 -5488678.915 23023260.889 -9403078.906 10 0 59956 51300.00000 0 -5407815.074 21686499.567 -12211533.666 10 0 59956 52200.00000 0 -5442181.814 20016227.323 -14781686.953 10 0 59956 53100.00000 0 -5632273.790 18055808.976 -17063462.271 10 0 59956 54000.00000 0 -6009920.603 15857793.820 -19012463.692 10 0 59956 54900.00000 0 -6596733.662 13481855.795 -20590843.237 10 0 59956 55800.00000 0 -7403000.021 10992451.251 -21768034.109 10 0 59956 56700.00000 0 -8427070.039 8456293.647 -22521335.947 10 0 59956 57600.00000 0 -9655264.327 5939751.746 -22836341.699 10 0 59956 58500.00000 0 -11062303.092 3506280.389 -22707199.089 10 0 59956 59400.00000 0 -12612238.827 1213990.721 -22136703.254 10 0 59956 60300.00000 0 -14259852.126 -886539.920 -21136220.432 10 0 59956 61200.00000 0 -15952451.124 -2754128.871 -19725445.857 10 0 59956 62100.00000 0 -17631998.436 -4358444.639 -17932002.094 10 0 59956 63000.00000 0 -19237476.267 -5681001.167 -15790886.827 10 0 59956 63900.00000 0 -20707390.652 -6715651.408 -13343781.855 10 0 59956 64800.00000 0 -21982310.615 -7468562.771 -10638237.261 10 0 59956 65700.00000 0 -23007336.803 -7957678.409 -7726746.890 10 0 59956 66600.00000 0 -23734397.437 -8211689.418 -4665733.086 10 0 59956 67500.00000 0 -24124276.791 -8268563.088 -1514460.001 10 0 59956 68400.00000 0 -24148292.650 -8173690.408 1666104.045 10 0 59956 69300.00000 0 -23789553.717 -7977731.379 4814453.869 10 0 59956 70200.00000 0 -23043745.295 -7734248.922 7869722.806 10 0 59956 71100.00000 0 -21919410.866 -7497230.583 10772844.631 10 0 59956 72000.00000 0 -20437717.871 -7318601.627 13467680.657 10 0 59956 72900.00000 0 -18631716.896 -7245833.334 15902091.580 10 0 59956 73800.00000 0 -16545124.123 -7319746.322 18028934.614 10 0 59956 74700.00000 0 -14230676.271 -7572600.741 19806967.679 10 0 59956 75600.00000 0 -11748124.560 -8026553.495 21201644.158 10 0 59956 76500.00000 0 -9161948.999 -8692547.789 22185783.468 10 0 59956 77400.00000 0 -6538885.802 -9569682.659 22740104.656 10 0 59956 78300.00000 0 -3945368.559 -10645090.704 22853612.519 10 0 59956 79200.00000 0 -1444987.607 -11894331.378 22523828.045 10 0 59956 80100.00000 0 903928.168 -13282285.976 21756857.543 10 0 59956 81000.00000 0 3050507.449 -14764519.561 20567297.553 10 0 59956 81900.00000 0 4953219.495 -16289055.403 18977975.469 10 0 59956 82800.00000 0 6581365.304 -17798489.766 17019528.918 10 0 59956 83700.00000 0 7916114.142 -19232359.962 14729830.062 10 0 59956 84600.00000 0 8951041.303 -20529667.163 12153264.193 10 0 59956 85500.00000 0 9692143.643 -21631447.920 9339875.366 10 0 59957 0.00000 0 10157331.576 -22483285.367 6344395.097 10 0 59957 900.00000 0 10375418.850 -23037653.265 3225171.207 10 0 59957 1800.00000 0 10384652.306 -23255990.934 43022.291 10 0 59957 2700.00000 0 10230845.433 -23110420.824 -3139964.141 10 0 59957 3600.00000 0 9965195.373 -22585032.755 -6261660.811 10 0 59957 4500.00000 0 9641878.060 -21676679.118 -9261132.674 10 0 59957 5400.00000 0 9315525.603 -20395245.919 -12079845.364 10 0 59957 6300.00000 0 9038695.243 -18763387.312 -14662824.499 10 0 59957 7200.00000 0 8859439.464 -16815734.653 -16959741.360 10 0 59957 8100.00000 0 8819082.175 -14597613.717 -18925902.475 10 0 59957 9000.00000 0 8950296.605 -12163324.864 -20523123.069 10 0 59957 9900.00000 0 9275567.076 -9574059.499 -21720467.094 10 0 59957 10800.00000 0 9806099.856 -6895541.252 -22494839.917 10 0 59957 11700.00000 0 10541228.720 -4195491.471 -22831423.044 10 0 59957 12600.00000 0 11468339.364 -1541025.501 -22723943.735 10 0 59957 13500.00000 0 12563314.686 1003911.733 -22174775.903 10 0 59957 14400.00000 0 13791480.885 3380964.696 -21194871.994 10 0 59957 15300.00000 0 15109013.281 5539541.345 -19803528.882 10 0 59957 16200.00000 0 16464741.773 7438653.927 -18027993.821 10 0 59957 17100.00000 0 17802279.399 9048352.361 -15902919.369 10 0 59957 18000.00000 0 19062384.359 10350693.333 -13469678.856 10 0 59957 18900.00000 0 20185456.500 11340207.798 -10775556.324 10 0 59957 19800.00000 0 21114064.146 12023850.370 -7872826.921 10 0 59957 20700.00000 0 21795396.094 12420435.441 -4817745.653 10 0 59957 21600.00000 0 22183537.096 12559585.996 -1669463.745 10 0 59957 22500.00000 0 22241472.592 12480240.921 1511106.976 10 0 59957 23400.00000 0 21942739.780 12228784.589 4662460.395 10 0 59957 24300.00000 0 21272656.753 11856877.741 7723671.589 10 0 59957 25200.00000 0 20229078.752 11419080.772 10635559.868 10 0 59957 26100.00000 0 18822649.994 10970368.763 13341818.071 10 0 59957 27000.00000 0 17076540.057 10563641.914 15790087.572 10 0 59957 27900.00000 0 15025674.756 10247335.084 17932959.516 10 0 59957 28800.00000 0 12715492.079 10063226.067 19728883.984 10 0 59957 29700.00000 0 10200272.952 10044534.136 21142970.478 10 0 59957 30600.00000 0 7541113.933 10214388.603 22147664.904 10 0 59957 31500.00000 0 4803623.716 10584732.158 22723290.146 10 0 59957 32400.00000 0 2055436.677 11155706.096 22858439.623 10 0 59957 33300.00000 0 -636355.496 11915544.871 22550215.500 10 0 59957 34200.00000 0 -3207749.146 12840986.538 21804305.800 10 0 59957 35100.00000 0 -5600246.515 13898184.271 20634897.368 10 0 59957 36000.00000 0 -7763046.300 15044083.184 19064424.480 10 0 59957 36900.00000 0 -9654915.716 16228206.900 17123155.980 10 0 59957 37800.00000 0 -11245665.669 17394780.619 14848626.968 10 0 59957 38700.00000 0 -12517166.615 18485102.580 12284924.234 10 0 59957 39600.00000 0 -13463861.653 19440064.445 9481838.012 10 0 59957 40500.00000 0 -14092754.452 20202713.969 6493895.685 10 0 59957 41400.00000 0 -14422871.948 20720750.625 3379295.982 10 0 59957 42300.00000 0 -14484224.263 20948846.983 198765.004 10 0 59957 43200.00000 0 -14316306.181 20850695.501 -2985642.593 10 0 59957 44100.00000 0 -13966204.559 20400691.834 -6111772.287 10 0 59957 45000.00000 0 -13486393.341 19585181.226 -9118602.198 10 0 59957 45900.00000 0 -12932311.571 18403213.408 -11947453.319 10 0 59957 46800.00000 0 -12359829.314 16866772.696 -14543151.785 10 0 59957 47700.00000 0 -11822711.058 15000472.897 -16855118.655 10 0 59957 48600.00000 0 -11370186.098 12840729.680 -18838364.629 10 0 59957 49500.00000 0 -11044730.334 10434445.652 -20454369.530 10 0 59957 50400.00000 0 -10880154.255 7837264.174 -21671829.143 10 0 59957 51300.00000 0 -10900078.281 5111466.064 -22467255.316 10 0 59957 52200.00000 0 -11116859.439 2323598.076 -22825418.530 10 0 59957 53100.00000 0 -11531013.725 -458067.048 -22739625.642 10 0 59957 54000.00000 0 -12131157.120 -3166132.846 -22211829.011 10 0 59957 54900.00000 0 -12894466.122 -5736635.685 -21252566.576 10 0 59957 55800.00000 0 -13787636.744 -8111450.089 -19880735.726 10 0 59957 56700.00000 0 -14768300.104 -10240444.416 -18123206.892 10 0 59957 57600.00000 0 -15786833.897 -12083299.374 -16014285.625 10 0 59957 58500.00000 0 -16788492.746 -13610916.212 -13595034.614 10 0 59957 59400.00000 0 -17715767.585 -14806358.816 -10912469.447 10 0 59957 60300.00000 0 -18510875.049 -15665293.367 -8018643.998 10 0 59957 61200.00000 0 -19118272.771 -16195909.938 -4969643.247 10 0 59957 62100.00000 0 -19487095.768 -16418331.823 -1824502.736 10 0 59957 63000.00000 0 -19573412.615 -16363539.313 1355924.988 10 0 59957 63900.00000 0 -19342207.673 -16071854.430 4510135.689 10 0 59957 64800.00000 0 -18769007.121 -15591050.961 7577148.976 10 0 59957 65700.00000 0 -17841081.184 -14974169.320 10497672.452 10 0 59957 66600.00000 0 -16558172.358 -14277127.608 13215233.126 10 0 59957 67500.00000 0 -14932718.818 -13556228.431 15677255.534 10 0 59957 68400.00000 0 -12989562.692 -12865665.178 17836066.987 10 0 59957 69300.00000 0 -10765153.902 -12255131.375 19649811.625 10 0 59957 70200.00000 0 -8306280.733 -11767632.575 21083256.567 10 0 59957 71100.00000 0 -5668377.505 -11437591.989 22108475.257 10 0 59957 72000.00000 0 -2913477.165 -11289329.222 22705394.997 10 0 59957 72900.00000 0 -107891.135 -11335976.365 22862197.928 10 0 59957 73800.00000 0 2680289.797 -11578877.926 22575567.053 10 0 59957 74700.00000 0 5383771.817 -12007501.317 21850771.357 10 0 59957 75600.00000 0 7938606.412 -12599863.595 20701586.870 10 0 59957 76500.00000 0 10286605.791 -13323458.684 19150053.298 10 0 59957 77400.00000 0 12377525.229 -14136648.228 17226068.964 10 0 59957 78300.00000 0 14170921.238 -14990459.384 14966829.872 10 0 59957 79200.00000 0 15637607.330 -15830715.245 12416122.008 10 0 59957 80100.00000 0 16760645.439 -16600408.682 9623479.230 10 0 59957 81000.00000 0 17535830.411 -17242219.374 6643222.271 10 0 59957 81900.00000 0 17971646.352 -17701066.751 3533397.264 10 0 59957 82800.00000 0 18088696.041 -17926589.365 354635.000 10 0 59957 83700.00000 0 17918627.527 -17875443.640 -2831045.813 10 0 59957 84600.00000 0 17502603.787 -17513322.330 -5961466.416 10 0 59957 85500.00000 0 16889381.334 -16816604.801 -8975520.946 99